Soldotna, AK

10:54 PM AKST on December 09, 2019 (GMT -0900)
Soldotna

Weather History for PASX - October, 2019

Change the Weather History Date:

Friday, October 25, 2019

  Actual Average Record
Temperature  
Mean Temperature 38 °F -  
Max Temperature 46 °F 37 °F 50 °F (2018)
Min Temperature 30 °F 20 °F -9 °F (1966)
Degree Days  
Heating Degree Days 28    
Moisture  
Dew Point 30 °F    
Average Humidity 73    
Maximum Humidity 92    
Minimum Humidity 49    
Precipitation  
Precipitation 0.02 in - - ()
Sea Level Pressure  
Sea Level Pressure 30.22 in    
Wind  
Wind Speed 8 mph (South)    
Max Wind Speed 13 mph    
Max Gust Speed 18 mph    
Visibility 10 miles    
Events Rain    
Averages and records for this station are not official NWS values.
T = Trace of Precipitation, MM = Missing Value Source: NWS Daily Summary

Daily Weather History Graph

Daily Weather History Graph

Search for Another Location

Airport or City:

Astronomy

Oct. 25, 2019 Rise Set
Actual Time 9:10 AM AKDT 6:25 PM AKDT
Civil Twilight 8:25 AM AKDT 7:09 PM AKDT
Nautical Twilight 7:36 AM AKDT 7:58 PM AKDT
Astronomical Twilight 6:47 AM AKDT 8:47 PM AKDT
Moon 4:55 AM AKDT (10/25) 6:29 PM AKDT (10/25)
Length of Visible Light 10h 43m
Length of Day
9h 14m
Waning Crescent, 8% of the Moon is Illuminated
Oct 25
Waning Crescent
Oct 27
New
Nov 4
First Quarter
Nov 12
Full
Nov 19
Last Quarter

Hourly Weather History & Observations

Time (AKDT) Temp. Windchill Dew Point Humidity Pressure Visibility Wind Dir Wind Speed Gust Speed Precip Events Conditions
12:56 AM 41.0 °F 33.9 °F 36.0 °F 82% 29.76 in 10.0 mi SSE 12.7 mph 18.4 mph N/A   Mostly Cloudy
1:56 AM 39.9 °F 33.4 °F 37.0 °F 89% 29.81 in 8.0 mi SSE 10.4 mph - 0.01 in Rain Light Rain
2:56 AM 39.9 °F 35.1 °F 37.0 °F 89% 29.86 in 6.0 mi South 6.9 mph - 0.00 in Rain Light Rain
3:56 AM 39.9 °F 37.8 °F 36.0 °F 86% 29.89 in 10.0 mi South 3.5 mph - 0.01 in Rain Light Rain
4:56 AM 39.9 °F 32.5 °F 34.0 °F 79% 29.92 in 10.0 mi South 12.7 mph - 0.00 in   Mostly Cloudy
5:56 AM 39.0 °F 31.8 °F 32.0 °F 76% 29.97 in 10.0 mi South 11.5 mph - N/A   Overcast
6:56 AM 37.9 °F 30.5 °F 30.9 °F 76% 30.02 in 10.0 mi South 11.5 mph - N/A   Scattered Clouds
7:56 AM 37.9 °F 31.5 °F 30.9 °F 76% 30.07 in 10.0 mi South 9.2 mph - N/A   Mostly Cloudy
8:56 AM 37.9 °F 32.7 °F 28.9 °F 70% 30.12 in 10.0 mi South 6.9 mph - N/A   Clear
9:56 AM 37.9 °F 30.9 °F 28.9 °F 70% 30.17 in 10.0 mi South 10.4 mph - N/A   Clear
10:56 AM 41.0 °F 36.4 °F 28.9 °F 62% 30.21 in 10.0 mi South 6.9 mph - N/A   Clear
11:56 AM 42.1 °F 37.7 °F 28.9 °F 60% 30.25 in 10.0 mi SSW 6.9 mph - N/A   Clear
12:56 PM 44.1 °F 39.5 °F 28.0 °F 53% 30.29 in 10.0 mi SSW 8.1 mph - N/A   Clear
1:56 PM 45.0 °F 40.6 °F 27.0 °F 49% 30.31 in 10.0 mi SSE 8.1 mph - N/A   Clear
2:56 PM 45.0 °F 39.3 °F 27.0 °F 49% 30.36 in 10.0 mi South 11.5 mph 16.1 mph N/A   Clear
3:56 PM 45.0 °F 40.1 °F 28.0 °F 52% 30.38 in 10.0 mi South 9.2 mph - N/A   Clear
4:56 PM 43.0 °F 39.5 °F 30.0 °F 60% 30.40 in 10.0 mi SSE 5.8 mph - N/A   Clear
5:56 PM 41.0 °F - 30.0 °F 65% 30.42 in 10.0 mi Calm Calm - N/A   Clear
6:56 PM 34.0 °F - 28.9 °F 82% 30.45 in 10.0 mi Calm Calm - N/A   Clear
7:56 PM 33.1 °F - 28.0 °F 82% 30.46 in 10.0 mi Calm Calm - N/A   Clear
8:56 PM 30.0 °F - 27.0 °F 88% 30.50 in 10.0 mi Calm Calm - N/A   Clear
9:56 PM 30.9 °F - 28.9 °F 92% 30.51 in 10.0 mi Calm Calm - N/A   Clear
10:56 PM 32.0 °F 28.7 °F 28.9 °F 88% 30.52 in 10.0 mi ENE 3.5 mph - N/A   Clear
11:56 PM 30.0 °F - 27.0 °F 88% 30.53 in 10.0 mi Calm Calm - N/A   Clear